Home   Weather   Hammerfest   Past weeks

Flag for Norway Past Weather in Hammerfest, Norway — Yesterday and Last 2 Weeks

37 °F

Light rain. Partly cloudy.

Feels Like: 33 °F
Forecast: 40 / 42 °F
Wind: 6 mph from Northeast

Location: Hammerfest

Current Time: Oct 28, 2016 at 11:51:10 PM

Latest Report: Oct 28, 2016 at 10:50 PM

Visibility: N/A

Pressure: 29.36 "Hg

Humidity: 100%

Dew Point: 37 °F

Location of HammerfestLocation

Past Weather in Hammerfest — Graph


Hammerfest Temperature Yesterday

Maximum temperature yesterday: 37 °F (at 11:50 PM)
Minimum temperature yesterday: 34 °F (at 2:50 AM)
Average temperature yesterday: 34 °F

High & Low Weather Summary for the Past Weeks

High48 °F (Oct 20, 10:50 AM)100% (Oct 14, 9:50 AM)30.63 "Hg (Oct 14, 9:50 AM)
Low28 °F (Oct 18, 8:50 AM)60% (Oct 23, 4:50 PM)29.27 "Hg (Oct 28, 5:50 AM)
Average39 °F80%30.22 "Hg
* Reported Oct 13 10:50 PM — Oct 28 10:20 PM, Hammerfest, Weather by CustomWeather, © 2016

Note: Actual official high and low records may vary slightly from our data, if they occured in-between our weather recording intervals... More about our weather records


Hammerfest Weather History for the Previous 24 Hours

Scroll right to see more
Time TempWeatherWind HumidityBarometerVisibility
10:20 PM
Fri, Oct 28
39 °FLight rain. Partly cloudy.6 mph93%29.33 "HgN/A
9:50 PM41 °FLight rain. Partly cloudy.8 mph93%29.33 "HgN/A
8:50 PM39 °FLight rain. Partly cloudy.10 mph93%29.33 "HgN/A
7:50 PM39 °FLight rain. Partly cloudy.8 mph93%29.30 "HgN/A
7:20 PM39 °FLight rain. Partly cloudy.9 mph93%29.30 "HgN/A
6:50 PM39 °FLight rain. Partly cloudy.6 mph93%29.30 "HgN/A
5:50 PM37 °FLight rain. Partly cloudy.2 mph93%29.30 "Hg6 mi
4:50 PM37 °FLight rain. Partly cloudy.3 mph93%29.30 "HgN/A
3:50 PM37 °FLight rain. Partly cloudy.3 mph93%29.30 "HgN/A
2:50 PM37 °FLight rain. Broken clouds.1 mph93%29.30 "HgN/A
2:20 PM37 °FSprinkles. Broken clouds.2 mph93%29.30 "HgN/A
1:50 PM37 °FLight rain. Partly sunny.No wind93%29.30 "HgN/A
12:50 PM37 °FLight rain. Broken clouds.No wind87%29.30 "HgN/A
12:20 PM37 °FLight rain. Partly sunny.1 mph81%29.30 "HgN/A
11:50 AM37 °FPartly sunny.3 mph81%29.30 "HgN/A
10:50 AM37 °FPartly sunny.3 mph81%29.27 "HgN/A
10:20 AM37 °FPartly sunny.2 mph81%29.27 "HgN/A
9:50 AM36 °FPartly sunny.No wind81%29.27 "HgN/A
9:20 AM36 °FScattered clouds.2 mph81%29.27 "HgN/A
8:50 AM36 °FPassing clouds.2 mph81%29.27 "HgN/A
7:50 AM36 °FPassing clouds.3 mph81%29.27 "HgN/A
6:50 AM36 °FPassing clouds.6 mph81%29.27 "HgN/A
6:20 AM36 °FPassing clouds.6 mph81%29.27 "HgN/A
5:50 AM36 °FPassing clouds.6 mph81%29.27 "HgN/A
3:50 AM37 °FPassing clouds.13 mph75%29.30 "HgN/A
2:50 AM37 °FPassing clouds.12 mph75%29.30 "HgN/A
1:50 AM37 °FPassing clouds.12 mph75%29.30 "HgN/A
12:50 AM37 °FPassing clouds.10 mph75%29.33 "HgN/A
11:50 PM
Thu, Oct 27
37 °FPassing clouds.7 mph70%29.36 "HgN/A
Weather by CustomWeather, © 2016

See weather overviewHow to use our weather pages